Regional Weather Roundup
Issued by NWS

Home | Current Version | Previous Version | Graphics & Text | Print | Product List | Glossary On
Versions: 1 2 3 4 5 6 7 8 9 10 11 12 13 14 15 16 17 18 19 20 21 22 23 24 25 26 27 28 29 30 31 32 33 34 35 36 37 38 39 40 41 42 43 44 45 46 47 48 49 50
000
ASUS43 KLOT 301621
RWRIL

ILLINOIS REGIONAL WEATHER ROUNDUP
NATIONAL WEATHER SERVICE CHICAGO/ROMEOVILLE IL
1100 AM CDT SUN AUG 30 2015

NOTE: "FAIR" INDICATES FEW OR NO CLOUDS BELOW 12,000 FEET WITH NO
SIGNIFICANT WEATHER AND/OR OBSTRUCTIONS TO VISIBILITY.

* THESE STATIONS ARE NOT UNDER NWS QUALITY CONTROL. THEY ALSO MAY NOT
  REPORT WEATHER SUCH AS PRECIPITATION OR FOG.

ILZ001-002-007-009-015-016-024-301700-
NORTHWEST ILLINOIS

CITY           SKY/WX    TMP DP  RH WIND       PRES   REMARKS
MOLINE         CLOUDY    68  64  87 CALM      30.10R FOG
STERLING*        N/A    N/A N/A N/A MISG        N/A
SAVANNA*       CLOUDY    71  61  69 SE3       30.10R
$$

ILZ003-004-008-010-011-017-018-301700-
NORTH CENTRAL ILLINOIS

CITY           SKY/WX    TMP DP  RH WIND       PRES   REMARKS
ROCKFORD       CLOUDY    70  62  76 SE3       30.11R
FREEPORT*      CLOUDY    68  60  76 SE3       30.13R
ROCHELLE*      CLOUDY    69  62  78 CALM      30.10S
DE KALB*       CLOUDY    69  61  75 CALM      30.11R
PERU*          CLOUDY    68  65  89 SE5       30.10S FOG
$$

ILZ005-006-012>014-019>023-301700-
NORTHEAST ILLINOIS

CITY           SKY/WX    TMP DP  RH WIND       PRES   REMARKS
CHICAGO-OHARE  CLOUDY    70  64  81 NE5       30.08S
CHICAGO-MIDWAY CLOUDY    73  63  70 S3        30.08S
AURORA         CLOUDY    72  63  73 VRB3      30.10R
LANSING*       CLOUDY    71  65  81 CALM      30.09S HAZE
JOLIET*        CLOUDY    72  65  76 N5        30.09S
WAUKEGAN       CLOUDY    67  64  90 NE6       30.08S FOG
DUPAGE AIRPORT CLOUDY    71  60  68 VRB3      30.09R
KANKAKEE*      CLOUDY    72  67  86 CALM      30.09S FOG
WHEELING       CLOUDY    68  64  87 N5        30.10S FOG
MORRIS*        CLOUDY    71  65  81 E5        30.08S
ROMEOVILLE*    CLOUDY    70  63  77 CALM      30.09S
NORTHERLY ISL    N/A     67  64  90 N8          N/A
$$

LMZ740>746-301700-
SOUTHERN LAKE MICHIGAN

STATION/POSITION SKY/WX   TEMP    WIND        PRES    VSBY  WAVE
                          AIR SEA DIR/SP/G                  HT/PER
                          (F)     (DEG/KT/KT) (MB)    (MI)  (FT/S)
SOUTHERN BUOY              67 68  360/  8/ 10 1018.1S         1
WILMETTE HARBOR            59 59  130/  4/  6   N/A           1/ 3
HARRISON CRIB              63     330/ 12/ 14   N/A
BURNHAM HARBOR             68     360/  5/  8   N/A
BURNS HARBOR               69     330/  3/  4 1019.0S
MICHIGAN CITY              71     270/  5/  5   N/A
MICHIGAN CITY 6N           70 71  310/  4/  4   N/A           1/ 3
ST. JOSEPH                 69 71  280/  6/  6   N/A           1/ 3
$$

ILZ025>027-034>036-040-047-049-050-058-095>099-301700-
WEST-CENTRAL ILLINOIS

CITY           SKY/WX    TMP DP  RH WIND       PRES   REMARKS
QUINCY         MOSUNNY   76  70  82 NE3       30.08R
GALESBURG*     PTSUNNY   70  67  89 CALM      30.10R
MACOMB*        CLOUDY    70  70  98 NE5       30.10S FOG
JACKSONVILLE*  PTSUNNY   80  72  77 CALM      30.07S HX  83
PITTSFIELD*    PTSUNNY   75  72  89 CALM      30.08S
$$

ILZ028>032-037-038-041>044-048-051>054-059>061-301700-
CENTRAL ILLINOIS

CITY           SKY/WX    TMP DP  RH WIND       PRES   REMARKS
PONTIAC        CLOUDY    72  70  93 NE3       30.10S FOG
BLOOMINGTON    CLOUDY    72  70  93 VRB6      30.10S FOG
DECATUR        CLOUDY    81  70  69 S9        30.08R HX  84
PEORIA         CLOUDY    73  66  78 E5        30.09R HAZE
LACON*         CLOUDY    67  65  94 CALM      30.09R FOG
LINCOLN*       SUNNY     80  69  68 CALM      30.07S HX  83
SPRINGFIELD    PTSUNNY   79  70  74 S5        30.07S HX  82
TAYLORVILLE    MOSUNNY   79  68  69 SW3       30.08S HX  81
$$

ILZ033-039-045-046-055>057-062-063-301700-
EAST-CENTRAL ILLINOIS

CITY           SKY/WX    TMP DP  RH WIND       PRES   REMARKS
CHAMPAIGN      CLOUDY    75  68  78 S5        30.09R
RANTOUL*       CLOUDY    76  71  84 CALM      30.09R
MATTOON        PTSUNNY   79  64  60 S8        30.09R HX  81
PARIS*         PTSUNNY   77  67  71 SW5       30.10S
$$

ILZ079-100>102-301700-
SOUTHWEST ILLINOIS

CITY           SKY/WX    TMP DP  RH WIND       PRES   REMARKS
ALTON          CLOUDY    79  68  69 SW6       30.07S HX  81
BELLEVILLE     SUNNY     80  71  74 VRB2      30.07R HX  84
CAHOKIA*       SUNNY     81  66  60 VRB3      30.07R HX  83
SPARTA*        PTSUNNY   79  70  74 S8        30.09S HX  81
$$

ILZ064>066-069>071-074>076-080>082-084>086-088>090-092>094-301700-
SOUTH-CENTRAL ILLINOIS

CITY           SKY/WX    TMP DP  RH WIND       PRES   REMARKS
CARBONDALE     MOSUNNY   79  70  74 S6        30.09R HX  82
CAIRO*         PTSUNNY   74  73  98 SE5       30.10R
EFFINGHAM*     MOSUNNY   79  63  58 S6        30.11R HX  80
MARION         PTSUNNY   79  72  78 S8        30.10S HX  82
MT. VERNON     MOSUNNY   82  68  61 S6        30.10S HX  85
SALEM*         MOSUNNY   80  69  68 S5        30.09S HX  83
METROPOLIS*    CLOUDY    76  73  90 CALM      30.11R
$$

ILZ067-068-072-073-078-083-087-091-301700-
SOUTHEAST ILLINOIS

CITY           SKY/WX    TMP DP  RH WIND       PRES   REMARKS
LAWRENCEVILLE  PTSUNNY   80  68  66 S7        30.10S HX  83
FLORA*         MOSUNNY   80  66  62 S8        30.10S HX  82
FAIRFIELD*     MOSUNNY   78  71  79 SW7       30.09S HX  81
HARRISBURG*    PTSUNNY   73  67  83 SW5       30.10R
ROBINSON*      PTSUNNY   79  66  64 SW5       30.11S HX  81
CARMI*         CLOUDY    74  71  89 S7        30.09S
$$

ABBREVIATIONS USED IN REMARKS
   TC - TEMPERATURE IN CELSIUS
  WCI - WIND CHILL INDEX
   HX - HEAT INDEX
  VSB - VISIBILITY
$$



USA.gov is the U.S. government's official web portal to all federal, state and local government web resources and services.